CZ-4 DEB

Satellite information

Favourite Embed

Satellite Type and Status

DEBRISIN ORBIT

Key statistics

Satellite CZ-4 DEB at a glance.

Uptime

9456

Days in orbit

Revolutions

≈ 14.3

Per day

Orbit

SSO

Sun Synchronous Orbit

Inclination

98.6

Latest

Satellite identification and parameters

Extended collection of information and parameters for CZ-4 DEB.

Object identification

Identified? True

Debris? True

Object name: CZ-4 DEB

International designator: 1999-057NB

Object number (NORAD): 28071

Object ID (CCSDS): 28071

Country: PEOPLES REPUBLIC OF CHINA (PRC)

Current information (Y/N): Y

RCS size: SMALL

Orbital parameters

Period: 100.397 minutes

Inclination: 98.5905 deg

SMA: 7155.495 km

Apoapsis: 854.179 km

Periapsis: 700.541 km

RAAN: 171.1847 deg

Eccentricy: 0.01073565

Argument of periapsis: 29.1006 deg

Mean anomaly: 147.8322 deg

Mean motion: 14.34310618 rev/day

Mean motion (dot): 0.00000444 rev/day2

B* drag term: 0.00016348391 1/REarth

Two-line elements (TLE)

Creation date: Aug. 31, 2025, 5:37 p.m.

Reference frame: TEME

Reference center: EARTH

Epoch: Aug. 31, 2025, 1:59 p.m. UTC

TLE line 0: 0 CZ-4 DEB

TLE line 1: 1 28071U 99057NB 25243.58264617 .00000444 00000-0 16348-3 0 9990

TLE line 2: 2 28071 98.5905 171.1847 0107357 29.1006 147.8322 14.34310618205045

Live tracking on map

Real-time ground track for satellite CZ-4 DEB.

In-orbit conjunctions

A list of the most updated potential collisions computed for object CZ-4 DEB.

Target Orbit TCA Probability of collision Miss distance Type
CZ-6A DEB LEO 2024-10-31 06:50:36 0.0002168168 482.0 (m) DEBRIS
FENGYUN 1C DEB SSO 2024-08-06 16:05:53 0.000158262 106.0 (m) DEBRIS
DMSP 5D-3 F18 DEB SSO 2024-07-22 15:57:11 0.0001173402 329.0 (m) DEBRIS
CZ-4B R/B SSO 2024-06-24 01:58:51 0.0004148903 95.0 (m) ROCKET BODY

Associated space launch

The CBERS (China Brazil Earth Resources Satellite) or ZY 1 (Zi Yuan) satellites are designed for global coverage and include cameras to make optical observations and a data collecting system to gather data on the environment. They are unique systems due to the use of on-board sensors which combine features that are especially designed to resolve the broad range of space and time scales involved in the monitoring and preservation of the ecosystem. They are operated jointly by the China Centre for Resources Satellite Data and Application (CRESDA) and the Brazilian INPE (Instituto Nacional de Pesquisas Espaciais, National Institute of Space Research).

CZ-4 DEB was lifted into orbit during the mission ‘Long March 4B | Zi Yuan 1-1’, on board a Long March 4B space rocket.

The launch took place on Oct. 14, 1999, 3:15 a.m. from Launch Complex 7.

For more information about the launch, click the button.

Launch to space Long March 4B | Zi Yuan 1-1
Long March 4B | Zi Yuan 1-1

Agency: N/A

Status: Launch Successful

Launch date: Oct. 14, 1999, 3:15 a.m. UTC

Rocket: Long March 4B

Launch pad: Launch Complex 7

Location: Taiyuan Satellite Launch Center, People's Republic of China

...

Latest news about this satellite

There are no fresh news available about this satellite. Check back as we update our databases every day.


Newsletter sign-up

Weekly statistics, charts and insights to help you stay on top of the space industry.